User: anonymous
Location: Unspecified
(0.0000°N, 0.0000°E)
Time: 13:58:25
(UTC+00:00)
Language:

deb r/b Ablestar - Orbit

View from above orbital plane
View from above orbital plane
View from above satellite
View from above satellite

Ground track
Ground track

The orbit data is extracted from the following two-line orbital elements,

1 00335U 61015DM  14203.73318936  .00000232  00000-0  15959-3 0  2491
2 00335 066.8417 055.4783 0038028 151.2206 280.3480 14.15290538711333
Epoch (UTC): 22 July 2014 17:35:47
Eccentricity: 0.0038028
inclination: 66.8417°
perigee height: 814 km
apogee height: 869 km
right ascension of ascending node: 55.4783°
argument of perigee: 151.2206°
revolutions per day: 14.15290538
mean anomaly at epoch: 280.3480°
orbit number at epoch: 71133

The dashed part of the orbit path shows where the satellite is in the earth's shadow,  

DLR